Flag for U.S.A. Weather past 2 weeks in Vevay, Indiana, U.S.A.

Now
50 °F

Passing clouds.


Feels Like: 47 °F
Forecast: 49 / 71 °F
Wind: 7 mph from South

Location: Cincinnati / Northern Kentucky International Airport

Current Time: Apr 2, 2015 at 1:09:15 AM

Latest Report: Apr 1, 2015 at 11:52 PM


Visibility: 10 mi

Pressure: 30.04 "Hg

Humidity: 44%

Dew point: 29 °F

Location of VevayLocation

Historic Weather in Vevay — Graph

°F

Vevay temperature yesterday

Maximum temperature yesterday: 66 °F (at 4:52 PM)
Minimum temperature yesterday: 34 °F (at 7:52 AM)
Average temperature yesterday: 50 °F

Past Weeks' High & Low Weather Summary

 TemperatureHumidityPressure
High69 °F (Mar 25, 1:52 PM)100% (Mar 26, 6:52 AM)30.37 "Hg (Mar 26, 6:52 AM)
Low20 °F (Mar 28, 5:52 AM)23% (Mar 18, 3:52 PM)29.79 "Hg (Mar 31, 11:52 AM)
Average44 °F58%30.10 "Hg
* Reported Mar 17 11:52 PM — Apr 1 11:52 PM, Vevay, Weather by CustomWeather, © 2015

Note: Actual official high and low records may vary slightly from our data, if they occured in-between our weather recording intervals... More about our weather records

Advertising

Vevay weather history for previous 24 hours

 ConditionsComfort  
Time TempWeatherWind HumidityBarometerVisibility
11:52 PM
Wed, Apr 1
50 °FPassing clouds.7 mph44%30.04 "Hg10 mi
10:52 PM50 °FPassing clouds.5 mph44%30.06 "Hg10 mi
9:52 PM53 °FPassing clouds.6 mph39%30.08 "Hg10 mi
8:52 PM56 °FPartly sunny.7 mph36%30.08 "Hg10 mi
7:52 PM59 °FBroken clouds.8 mph33%30.06 "Hg10 mi
6:52 PM63 °FBroken clouds.12 mph31%30.08 "Hg10 mi
5:52 PM66 °FScattered clouds.8 mph27%30.07 "Hg10 mi
4:52 PM66 °FPassing clouds.6 mph26%30.08 "Hg10 mi
3:52 PM65 °FPassing clouds.3 mph28%30.09 "Hg10 mi
2:52 PM64 °FPassing clouds.6 mph29%30.11 "Hg10 mi
1:52 PM62 °FSunny.3 mph32%30.13 "Hg10 mi
12:52 PM59 °FSunny.6 mph41%30.15 "Hg10 mi
11:52 AM55 °FPassing clouds.7 mph47%30.16 "Hg10 mi
10:52 AM51 °FSunny.8 mph56%30.16 "Hg10 mi
9:52 AM47 °FSunny.9 mph64%30.15 "Hg10 mi
8:52 AM40 °FSunny.6 mph80%30.12 "Hg8 mi
7:52 AM34 °FClear.5 mph88%30.10 "Hg7 mi
6:52 AM35 °FClear.3 mph82%30.07 "Hg9 mi
5:52 AM35 °FClear.6 mph85%30.05 "Hg9 mi
4:52 AM35 °FClear.3 mph85%30.04 "Hg9 mi
3:52 AM37 °FClear.5 mph82%30.04 "Hg8 mi
2:52 AM39 °FClear.7 mph79%30.04 "Hg8 mi
1:52 AM42 °FClear.9 mph76%30.03 "Hg9 mi
Weather by CustomWeather, © 2015

See weather overviewHow to use our weather pages